GW5922 Weather Reports


time (UTC)temp
C
wind
direction
speed
KPH
gust
KPH
rain 1hr
cm
rain 24hr
cm
rain mn
cm
humidity
%
barometer
mb
20260506003734 22 58 6.4 20.9 0.00 0.10 0.10 49 1008.2
20260506003231 22 142 4.8 16.1 0.00 0.10 0.10 49 1008.2
20260506002726 22 248 4.8 19.3 0.00 0.10 0.10 49 1007.8
20260506002223 22 260 4.8 19.3 0.00 0.10 0.10 49 1007.8
20260506001719 22 322 4.8 16.1 0.00 0.10 0.10 49 1007.8
20260506001217 22 84 4.8 16.1 0.00 0.10 0.10 48 1007.8
20260506000713 23 244 4.8 19.3 0.00 0.10 0.10 48 1007.8
20260506000212 23 224 6.4 25.7 0.00 0.10 0.10 47 1007.8
20260505235708 23 264 8.0 29.0 0.00 0.10 0.10 47 1007.8
20260505235206 23 195 8.0 29.0 0.00 0.10 0.10 47 1007.8
20260505234702 23 256 8.0 22.5 0.00 0.10 0.10 47 1007.8
20260505234200 23 239 6.4 22.5 0.00 0.10 0.10 47 1007.5
20260505233657 23 217 6.4 19.3 0.00 0.10 0.10 47 1007.5
20260505233155 23 252 4.8 16.1 0.00 0.10 0.10 46 1007.8
20260505232652 24 134 6.4 25.7 0.00 0.10 0.10 46 1007.5
20260505232150 24 8 9.7 25.7 0.00 0.10 0.10 45 1007.5
20260505231646 24 117 9.7 25.7 0.00 0.10 0.10 45 1007.5
20260505231145 24 252 12.9 41.8 0.00 0.10 0.10 45 1007.5
20260505230642 24 230 12.9 41.8 0.00 0.10 0.10 45 1007.5
20260505230138 24 273 8.0 24.1 0.00 0.10 0.10 45 1007.5
20260505225634 24 90 8.0 25.7 0.00 0.10 0.10 45 1007.5
20260505225131 25 155 8.0 27.4 0.00 0.10 0.10 45 1007.2
20260505224627 25 349 8.0 30.6 0.00 0.10 0.10 44 1007.2
20260505224125 25 214 11.3 32.2 0.00 0.10 0.10 44 1007.2
20260505223622 25 323 16.1 38.6 0.00 0.10 0.10 43 1007.2
20260505223118 25 214 16.1 38.6 0.00 0.10 0.10 41 1007.2
20260505222615 25 238 14.5 32.2 0.00 0.10 0.10 41 1007.2
20260505222111 25 176 12.9 32.2 0.00 0.10 0.10 42 1007.2
20260505221603 25 226 9.7 27.4 0.00 0.10 0.10 42 1007.2
20260505221059 25 121 9.7 27.4 0.00 0.10 0.10 42 1006.8
20260505220556 26 89 12.9 37.0 0.00 0.10 0.10 42 1007.2
20260505220054 26 83 11.3 37.0 0.00 0.10 0.10 41 1006.8
20260505215552 25 213 11.3 35.4 0.00 0.10 0.10 44 1006.8
20260505215050 25 89 9.7 35.4 0.00 0.10 0.10 43 1006.8
20260505214548 26 274 9.7 24.1 0.00 0.10 0.10 43 1006.8
20260505214044 26 231 12.9 30.6 0.00 0.10 0.10 42 1007.2
20260505213542 26 258 14.5 32.2 0.00 0.10 0.10 41 1007.2
20260505213038 26 219 14.5 32.2 0.00 0.10 0.10 41 1007.2
20260505212535 26 259 14.5 35.4 0.00 0.10 0.10 40 1006.8
20260505212032 26 241 12.9 35.4 0.00 0.10 0.10 39 1007.2
20260505211529 26 268 12.9 32.2 0.00 0.10 0.10 40 1006.8
20260505211026 26 93 14.5 33.8 0.00 0.10 0.10 41 1006.8
20260505210522 26 245 16.1 38.6 0.00 0.10 0.10 40 1006.8
20260505210020 26 231 14.5 38.6 0.00 0.10 0.10 39 1006.8
20260505205518 26 244 16.1 38.6 0.00 0.10 0.10 40 1006.8
20260505205015 26 44 17.7 38.6 0.00 0.10 0.10 41 1007.2
20260505204512 26 276 17.7 38.6 0.00 0.10 0.10 40 1006.8
20260505204009 26 208 16.1 38.6 0.00 0.10 0.10 41 1006.8
20260505203506 27 139 12.9 35.4 0.00 0.10 0.10 41 1006.8
20260505203003 26 181 11.3 35.4 0.00 0.10 0.10 40 1006.5
20260505202459 26 236 11.3 35.4 0.00 0.10 0.10 42 1006.8
20260505201955 26 211 12.9 35.4 0.00 0.10 0.10 43 1006.8
20260505201452 26 295 16.1 32.2 0.00 0.10 0.10 42 1006.8
20260505200949 26 266 17.7 43.5 0.00 0.10 0.10 41 1006.8
20260505200447 26 264 20.9 43.5 0.00 0.10 0.10 42 1007.2
20260505195943 26 258 22.5 41.8 0.00 0.10 0.10 42 1007.2
20260505195440 26 276 20.9 41.8 0.00 0.10 0.10 42 1006.8
20260505194937 26 122 16.1 40.2 0.00 0.10 0.10 42 1007.2
20260505194435 27 265 14.5 33.8 0.00 0.10 0.10 41 1007.2
20260505193934 26 105 16.1 29.0 0.00 0.10 0.10 42 1007.2
20260505193432 26 268 14.5 29.0 0.00 0.10 0.10 42 1007.2
20260505192930 26 259 14.5 32.2 0.00 0.10 0.10 42 1007.2
20260505192428 26 264 17.7 32.2 0.00 0.10 0.10 41 1007.2
20260505191925 26 281 20.9 33.8 0.00 0.10 0.10 39 1007.2
20260505191424 26 198 20.9 33.8 0.00 0.10 0.10 38 1007.2
20260505190920 26 281 24.1 37.0 0.00 0.10 0.10 37 1007.2
20260505190416 26 239 25.7 38.6 0.00 0.10 0.10 38 1007.2
20260505185911 26 285 24.1 38.6 0.00 0.10 0.10 38 1007.2
20260505185409 26 259 20.9 38.6 0.00 0.10 0.10 39 1007.2
20260505184904 26 258 19.3 38.6 0.00 0.10 0.10 39 1007.5
20260505184401 26 207 24.1 41.8 0.00 0.10 0.10 40 1007.5
20260505183859 26 269 25.7 41.8 0.00 0.10 0.10 37 1007.5
20260505183355 26 265 25.7 48.3 0.00 0.10 0.10 38 1007.5
20260505182852 26 274 24.1 48.3 0.00 0.10 0.10 38 1007.5
20260505182349 26 235 25.7 43.5 0.00 0.10 0.10 40 1007.8
20260505181845 26 274 24.1 43.5 0.00 0.10 0.10 39 1007.5
20260505181343 26 255 19.3 43.5 0.00 0.10 0.10 39 1007.5
20260505180839 26 268 17.7 32.2 0.00 0.10 0.10 42 1007.8
20260505180336 26 266 17.7 35.4 0.00 0.10 0.10 41 1007.8
20260505175833 26 269 25.7 46.7 0.00 0.10 0.10 41 1007.8
20260505175329 26 263 27.4 46.7 0.00 0.10 0.10 42 1008.2
20260505174825 26 262 24.1 38.6 0.00 0.10 0.10 42 1008.2
20260505174323 26 228 24.1 40.2 0.00 0.10 0.10 43 1008.2
20260505173819 26 256 19.3 40.2 0.00 0.10 0.10 42 1008.2
20260505173315 26 266 17.7 38.6 0.00 0.10 0.10 43 1008.2
20260505172813 26 269 16.1 35.4 0.00 0.10 0.10 45 1008.2
20260505172310 26 255 16.1 43.5 0.00 0.10 0.10 46 1008.2
20260505171804 25 158 22.5 48.3 0.00 0.10 0.10 46 1008.5
20260505171302 25 257 24.1 48.3 0.00 0.10 0.10 46 1008.2
20260505170758 25 270 17.7 35.4 0.00 0.10 0.10 48 1008.5
20260505170255 25 206 14.5 40.2 0.00 0.10 0.10 49 1008.5
20260505165750 25 264 12.9 33.8 0.00 0.10 0.10 49 1008.5
20260505165246 25 263 12.9 27.4 0.00 0.10 0.10 54 1008.9
20260505164742 25 260 12.9 27.4 0.00 0.10 0.10 51 1008.9
20260505164239 25 200 14.5 30.6 0.00 0.10 0.10 53 1008.9
20260505163737 24 255 17.7 32.2 0.00 0.10 0.10 50 1008.9
20260505163236 24 284 19.3 35.4 0.00 0.10 0.10 51 1009.3
20260505162732 24 272 17.7 35.4 0.00 0.10 0.10 51 1009.3
20260505162229 24 257 16.1 29.0 0.00 0.10 0.10 54 1009.3
20260505161726 23 276 14.5 29.0 0.00 0.10 0.10 52 1009.3
20260505161224 23 254 14.5 25.7 0.00 0.10 0.10 51 1009.3
20260505160721 23 250 16.1 25.7 0.00 0.10 0.10 52 1009.3
20260505160219 23 257 14.5 25.7 0.00 0.10 0.10 52 1009.3
20260505153158 22 288 16.1 32.2 0.00 0.10 0.10 52 1009.6
20260505152654 22 238 14.5 25.7 0.00 0.10 0.10 56 1009.6
20260505152150 22 270 12.9 24.1 0.00 0.10 0.10 59 1010.0
20260505151646 22 272 12.9 24.1 0.00 0.10 0.10 55 1010.0
20260505151143 22 257 16.1 27.4 0.00 0.10 0.10 57 1010.0
20260505150639 22 275 12.9 27.4 0.00 0.10 0.10 59 1010.0
20260505150137 22 250 9.7 27.4 0.00 0.10 0.10 58 1010.0
20260505140605 19 257 6.4 19.3 0.00 0.10 0.10 69 1010.3
20260505125019 17 248 4.8 11.3 0.00 0.10 0.10 72 1010.6
20260505124515 17 206 4.8 11.3 0.00 0.10 0.10 73 1010.6
20260505124012 17 267 3.2 11.3 0.00 0.10 0.10 72 1010.6
20260505123508 17 259 0.0 6.4 0.00 0.10 0.10 73 1010.6
20260505123004 17 169 0.0 3.2 0.00 0.10 0.10 75 1010.3
20260505122501 16 262 1.6 3.2 0.00 0.10 0.10 74 1010.6
20260505121958 16 254 1.6 4.8 0.00 0.10 0.10 76 1010.6
20260505121455 16 219 1.6 9.7 0.00 0.10 0.10 77 1010.6
20260505120951 16 248 1.6 9.7 0.00 0.10 0.10 76 1010.6
20260505120447 16 249 0.0 4.8 0.00 0.10 0.10 76 1010.3
20260505115946 15 258 0.0 6.4 0.00 0.10 0.10 79 1010.3
20260505115443 15 258 1.6 8.0 0.00 0.10 0.10 79 1010.6
20260505114942 15 238 1.6 8.0 0.00 0.10 0.10 79 1010.3
20260505114437 15 246 0.0 8.0 0.00 0.10 0.10 79 1010.3
20260505113934 15 98 0.0 1.6 0.00 0.10 0.10 82 1010.3
20260505113430 14 98 0.0 1.6 0.00 0.10 0.10 83 1010.3
20260505112926 14 98 0.0 3.2 0.00 0.10 0.10 83 1010.0
20260505112424 13 98 0.0 3.2 0.00 0.10 0.10 83 1010.3
20260505111920 13 99 0.0 1.6 0.00 0.10 0.10 83 1010.0
20260505111415 13 234 0.0 0.0 0.00 0.10 0.10 85 1010.3
20260505110911 13 234 0.0 0.0 0.00 0.10 0.10 86 1010.0
20260505110408 12 234 0.0 0.0 0.00 0.10 0.10 88 1010.0
20260505101833 11 234 0.0 1.6 0.00 0.10 0.10 85 1009.6
20260505101328 11 234 0.0 3.2 0.00 0.10 0.10 85 1010.0
20260505100824 11 234 0.0 3.2 0.00 0.10 0.10 85 1009.6
20260505100321 12 242 0.0 3.2 0.00 0.10 0.10 85 1009.6
20260505095817 12 281 1.6 4.8 0.03 0.10 0.10 85 1009.6
20260505095315 12 37 3.2 6.4 0.03 0.10 0.10 85 1009.6
20260505094810 12 169 1.6 6.4 0.03 0.10 0.10 86 1009.6
20260505094308 12 178 1.6 6.4 0.05 0.10 0.10 86 1009.3
20260505093803 12 259 3.2 11.3 0.10 0.10 0.10 85 1009.3
20260505093301 12 247 1.6 12.9 0.10 0.10 0.10 84 1009.6
20260505092757 12 268 0.0 12.9 0.10 0.10 0.10 83 1009.6
20260505092256 12 86 1.6 3.2 0.10 0.10 0.10 82 1009.3
20260505091753 12 77 3.2 6.4 0.10 0.10 0.10 81 1009.6
20260505091251 12 69 3.2 6.4 0.10 0.10 0.10 81 1009.6
20260505090748 13 38 3.2 9.7 0.10 0.10 0.10 80 1010.0
20260505090246 13 290 3.2 9.7 0.10 0.10 0.10 79 1010.0
20260505085743 13 346 1.6 6.4 0.08 0.08 0.08 78 1010.0
20260505085242 13 293 3.2 9.7 0.08 0.08 0.08 76 1010.0
20260505084738 13 283 6.4 14.5 0.08 0.08 0.08 74 1010.0
20260505084238 13 262 6.4 14.5 0.05 0.05 0.05 71 1010.0
20260505083734 13 278 4.8 11.3 0.00 0.00 0.00 69 1010.3
20260505083231 13 299 3.2 8.0 0.00 0.00 0.00 69 1010.0
20260505082727 13 274 1.6 4.8 0.00 0.00 0.00 70 1010.0
20260505082224 13 270 1.6 3.2 0.00 0.00 0.00 69 1009.6
20260505081720 13 270 1.6 3.2 0.00 0.00 0.00 69 1009.6
20260505081218 13 319 1.6 3.2 0.00 0.00 0.00 69 1009.6
20260505080715 13 319 0.0 3.2 0.00 0.00 0.00 69 1009.3
20260505080210 13 319 1.6 3.2 0.00 0.00 0.00 69 1009.3
20260505075706 13 262 0.0 1.6 0.00 0.00 0.00 68 1009.3
20260505075203 13 263 0.0 1.6 0.00 0.00 0.00 68 1009.3
20260505074700 13 263 0.0 1.6 0.00 0.00 0.00 68 1009.3
20260505074157 13 263 0.0 1.6 0.00 0.00 0.00 67 1009.3
20260505073655 13 262 0.0 1.6 0.00 0.00 0.00 67 1009.3
20260505073153 13 263 0.0 0.0 0.00 0.00 0.00 67 1009.6
20260505072648 13 263 0.0 0.0 0.00 0.00 0.00 67 1009.3
20260505072145 13 263 0.0 0.0 0.00 0.00 0.00 68 1009.3
20260505071640 13 263 0.0 0.0 0.00 0.00 0.00 68 1009.3
20260505071139 13 263 0.0 0.0 0.00 0.00 0.00 67 1009.3
20260505070635 13 262 0.0 1.6 0.00 0.00 0.00 67 1009.3
20260505070132 13 262 0.0 1.6 0.00 0.00 0.00 67 1009.3
20260505065628 12 262 0.0 0.0 0.00 0.00 0.00 68 1009.3
20260505065124 13 262 0.0 1.6 0.00 0.00 0.00 67 1009.3
20260505064621 12 263 0.0 1.6 0.00 0.00 0.00 68 1009.3
20260505064120 12 262 0.0 0.0 0.00 0.00 0.00 67 1009.3
20260505063617 12 263 0.0 0.0 0.00 0.00 0.00 66 1009.3
20260505063113 13 263 0.0 0.0 0.00 0.00 0.00 66 1009.6
20260505062609 13 263 0.0 0.0 0.00 0.00 0.00 66 1009.6
20260505062107 13 262 0.0 0.0 0.00 0.00 0.00 66 1009.6
20260505061604 13 263 0.0 0.0 0.00 0.00 0.00 66 1009.6
20260505061102 13 263 0.0 0.0 0.00 0.00 0.00 65 1009.6
20260505060559 13 263 0.0 0.0 0.00 0.00 0.00 64 1009.6
20260505060056 13 263 0.0 0.0 0.00 0.00 0.00 64 1009.6
20260505055551 13 262 0.0 1.6 0.00 0.00 0.00 64 1009.6
20260505055048 13 263 0.0 1.6 0.00 0.00 0.00 64 1009.6
20260505054545 14 263 0.0 3.2 0.00 0.00 0.00 63 1009.6
20260505054043 14 263 0.0 3.2 0.00 0.00 0.00 63 1009.6
20260505053540 15 254 1.6 3.2 0.00 0.00 0.00 62 1009.6
20260505053037 15 254 3.2 4.8 0.00 0.00 0.00 61 1009.6
20260505052534 15 250 3.2 4.8 0.00 0.00 0.00 62 1009.6
20260505052031 15 257 3.2 6.4 0.00 0.00 0.00 62 1009.6
20260505051528 15 243 3.2 8.0 0.00 0.00 0.00 61 1009.6
20260505051026 15 255 3.2 11.3 0.00 0.00 0.00 61 1009.6
20260505050524 15 239 3.2 11.3 0.00 0.00 0.00 62 1009.6
20260505041451 14 252 1.6 4.8 0.00 0.00 0.00 61 1009.3
20260505040948 14 253 1.6 4.8 0.00 0.00 0.00 61 1009.3
20260505040446 15 260 0.0 3.2 0.00 0.00 0.00 61 1009.3
20260505035943 14 260 0.0 4.8 0.00 0.00 0.00 61 1008.9
20260505035439 14 260 0.0 4.8 0.00 0.00 0.00 61 1008.9
20260505034936 14 255 0.0 1.6 0.00 0.00 0.00 61 1008.9
20260505034432 14 255 0.0 1.6 0.00 0.00 0.00 61 1009.3
20260505033930 14 255 0.0 1.6 0.00 0.00 0.00 61 1009.3
20260505033426 14 255 0.0 1.6 0.00 0.00 0.00 61 1009.3
20260505032925 14 255 0.0 0.0 0.00 0.00 0.00 60 1009.3
20260505032421 15 255 0.0 1.6 0.00 0.00 0.00 59 1009.3
20260505031918 15 255 0.0 3.2 0.00 0.00 0.00 58 1009.3
20260505031415 15 255 1.6 3.2 0.00 0.00 0.00 59 1009.3
20260505030912 15 255 0.0 1.6 0.00 0.00 0.00 59 1009.6
20260505030408 15 255 0.0 1.6 0.00 0.00 0.00 57 1009.6
20260505025903 15 255 0.0 3.2 0.00 0.00 0.00 56 1009.6
20260505025401 16 255 1.6 4.8 0.00 0.00 0.00 56 1009.6
20260505024900 16 258 1.6 4.8 0.00 0.00 0.00 56 1009.6
20260505024357 16 259 1.6 6.4 0.00 0.00 0.00 56 1009.6
20260505023854 16 250 1.6 6.4 0.00 0.00 0.00 56 1009.6
20260505023351 16 254 3.2 9.7 0.00 0.00 0.00 55 1009.6
20260505022848 16 252 4.8 9.7 0.00 0.00 0.00 55 1009.6
20260505022345 16 257 4.8 11.3 0.00 0.00 0.00 54 1009.6
20260505021842 16 258 4.8 11.3 0.00 0.00 0.00 54 1009.6
20260505021338 16 258 4.8 9.7 0.00 0.00 0.00 54 1010.0
20260505020834 16 261 4.8 9.7 0.00 0.00 0.00 54 1009.6
20260505020330 16 248 4.8 8.0 0.00 0.00 0.00 54 1009.6
20260505015827 16 247 4.8 8.0 0.00 0.00 0.00 54 1009.6
20260505015324 16 254 4.8 8.0 0.00 0.00 0.00 54 1009.6
20260505014821 16 255 4.8 8.0 0.00 0.00 0.00 54 1009.6
20260505014318 17 257 4.8 9.7 0.00 0.00 0.00 54 1009.6
20260505013815 17 255 4.8 9.7 0.00 0.00 0.00 53 1009.6
20260505013312 17 251 4.8 9.7 0.00 0.00 0.00 52 1009.6
20260505012811 17 266 3.2 9.7 0.00 0.00 0.00 52 1009.6
20260505012308 17 212 4.8 9.7 0.00 0.00 0.00 52 1009.6
20260505011803 17 226 4.8 12.9 0.00 0.00 0.00 52 1009.3
20260505011301 17 195 3.2 12.9 0.00 0.00 0.00 52 1009.3
20260505010756 17 214 3.2 12.9 0.00 0.00 0.00 52 1009.3
20260505010253 17 271 3.2 11.3 0.00 0.00 0.00 51 1009.3
20260505005749 17 233 3.2 11.3 0.00 0.00 0.00 51 1009.3
20260505005246 17 250 3.2 11.3 0.00 0.00 0.00 51 1009.3
20260505004743 17 217 4.8 19.3 0.00 0.00 0.00 51 1008.9
20260505004239 17 253 4.8 19.3 0.00 0.00 0.00 50 1008.9